アトラス彗星

C/2022 E2 ( ATLAS )

English version
Home page
Updated on May 27, 2025

---------------------------------------------------------------------

・ プロフィール

発見日 2022年3月7日
発見光度 18.7等
発見者 Asteroid Terrestrial-Impact Last Alert System (ATLAS) search program

・ 写真集

・ 軌道要素

Epoch 2025 May 5.0 TT = JDT 2460800.5
T 2024 Sept. 14.14008 TT                                Pike
q   3.6664134            (2000.0)            P               Q
z  -0.0001208      Peri.   41.74676     -0.03430680     +0.83149813
 +/-0.0000003      Node   125.39714     +0.63723066     -0.40919334
e   1.0004430      Incl.  137.14096     +0.76990917     +0.37572819
From 3972 observations 2022 Feb. 23-2025 Feb. 25, mean residual 0".7.

・ 星図

・ 光度変化

        m1 = 3.0 + 5 logΔ + 12.0 log r(t + 100)

---------------------------------------------------------------------

軌道要素はM.P.E.C. 2025-D254に掲載されたものです。
星図はステラナビゲータ Ver.10 (アストロアーツ) で作成したものです。
光度グラフはComet for Windowsで作成したものです。

---------------------------------------------------------------------

Copyright(C) Seiichi Yoshida (comet@aerith.net). All rights reserved.